Location: Kellogg
(38.0159°N, 90.0546°W)
Time: 08:56:42
(UTC+00:00)

Altair - Pass Details

Date: 22 September 2024
Orbit: 1501 x 1682 km, 47.2° (Epoch: 07 October)

Event Time Altitude Azimuth Distance (km) Brightness Sun altitude
Rises 04:33:18 0° 198° (SSW) 4,731 - -47.7°
Reaches altitude 10° 04:36:43 10° 189° (S) 3,777 - -48.0°
Maximum altitude 04:45:00 34° 130° (SE) 2,452 - -48.8°
Drops below altitude 10° 04:53:32 10° 70° (ENE) 3,908 - -49.5°
Exits shadow 04:55:55 - 64° (ENE) 4,571 10.0 -49.7°
Sets 04:57:06 0° 62° (ENE) 4,915 10.2 -49.8°
